Welcome to the New NWS' Forecast!
Most changes are behind the scenes, but click here for differences you might notice.
Latest weather observations around

Gadsden, Gadsden Municipal Airport (KGAD)

Using English Units (Switch to International System of Units)
Date/ Time (CST) Wind (mph) Vis. (mi) Weather Sky Cond. Temp (°F) Rel. Humidity Wind Chill (°F) Heat Index (°F) Pressure Precip. (in)
Air Dwpt 6 hour Altimeter (inHg) Sea level (inHg) 1 hr 3 hr 6 hr
Max Min
Jan 23 10:56   10 Mostly Clear FEW048 51 31     46%     30.06 30.08      
Jan 23 09:56 WSW 14 10 Clear CLR 50 31     48% 45   30.06 30.07      
Jan 23 08:56 W 14 10 Clear CLR 48 31     51% 42   30.05 30.06      
Jan 23 07:56 W 13 10 Clear CLR 45 31     58% 39   30.02 30.04      
Jan 23 06:56 WSW 6 10 Clear CLR 40 29     65% 36   30 30.02      
Jan 23 05:56 W 11 10 Clear CLR 44 30     58% 38   29.98 29.99      
Jan 23 04:56 WSW 10 10 Clear CLR 44 31     60% 39   29.96 29.97      
Jan 23 03:56 WSW 8 10 Clear CLR 44 31     60% 40   29.95 29.96      
Jan 23 02:56 WSW 13 10 Clear CLR 46 32     58% 40   29.94 29.95      
Jan 23 01:56 WSW 13 10 Clear CLR 48 34     58% 43   29.93 29.94      
Jan 23 00:56 W 15 10 Clear CLR 51 36     56%     29.91 29.92      
Jan 22 23:56 W 14 10 Clear CLR 53 42     66%     29.9 29.91      
Jan 22 22:56 WSW 10 7 Mostly Clear FEW030 54 54     100%     29.89 29.9      
Jan 22 22:25 SW 6 7 Clear CLR 55 55     100%     29.89        
Jan 22 22:16 SW 5 2 Fog/Mist CLR 55 55     100%     29.88        
Jan 22 22:11 SW 5 1 Fog/Mist VV013 55 55     100%     29.88        
Jan 22 22:02 SSW 3 1.5 Fog/Mist SCT012 55 55     100%     29.88        
Jan 22 21:56 SSW 3 7 Mostly Cloudy BKN014 56 56     100%     29.88 29.89      
Jan 22 21:49 SSW 3 10 Mostly Cloudy BKN012 BKN017 57 57     100%     29.89        
Jan 22 21:42 SSW 5 10 Mostly Cloudy SCT011 BKN016 57 57     100%     29.89        
Jan 22 21:30 SSW 6 10 Mostly Cloudy SCT004 BKN011 BKN017 57 57     100%     29.89        
Jan 22 21:13 SW 6 6 Fog/Mist OVC004 57 57     100%     29.89        
Jan 22 20:56 WSW 5 4 Fog/Mist OVC006 57 57     100%     29.89 29.9      
Jan 22 20:32 WSW 6 3 Fog/Mist BKN006 55 55     100%     29.89        
Jan 22 20:16 W 5 1.5 Fog/Mist BKN008 55 55     100%     29.89        
Jan 22 20:14 WSW 5 1 Fog/Mist BKN010 55 55     100%     29.89        
Jan 22 19:56 Calm 0.5 Fog OVC010 56 56     100%     29.88 29.89      
Jan 22 19:54 Calm 1 Fog/Mist OVC010 55 55     100%     29.88        
Jan 22 18:56 SSW 3 10 Cloudy OVC012 60 60     100%     29.88 29.89      
Jan 22 17:56 S 5 10 Cloudy OVC012 61 60     97%     29.87 29.88     0
Jan 22 16:56 Calm 10 Cloudy OVC012 61 59     93%     29.87 29.88      
Jan 22 15:56 5 10 Cloudy BKN014 OVC019 61 60     97%     29.87 29.88      
Jan 22 14:56 S 8 10 Mostly Cloudy BKN014 BKN120 61 59     93%     29.87 29.88 0 0  
Jan 22 14:27 S 5 10 Cloudy FEW017 OVC085 61 61     100%     29.87   0    
Jan 22 12:56 Calm 10 Light Rain OVC021 54 53     97%     29.94 29.95 0    
Jan 22 11:56 Calm 10 Clear   57 50     77%     29.98 30 0    
Jan 22 10:56 ENE 7 10 Cloudy OVC023 54 49     83%     30.02 30.03 0    
Jan 22 10:28 E 5 10 Light Rain BKN023 BKN030 OVC038 54 48     82%     30.04   0    
Jan 22 10:05 E 3 10 Cloudy SCT025 OVC037 54 46     77%     30.04        
Jan 22 09:56 E 5 10 Cloudy BKN027 OVC037 53 47     80%     30.04 30.05      
Jan 22 08:56 Calm 10 Cloudy OVC027 52 46     80%     30.05 30.06      
Jan 22 07:56 E 3 10 Cloudy BKN024 OVC029 50 44     80% 49   30.04 30.05      
Jan 22 07:51 E 6 10 Cloudy OVC029 48 45     87% 46   30.04        
Notice The following observation data may not be complete
Jan 22 06:56 E 5 10 Clear CLR   42      %     30.04 30.06      
Notice The following observation data may not be complete
Jan 22 05:56 Calm 10 Clear CLR   41      %     30.05 30.07      
Jan 22 04:56 Calm 10 Clear CLR 45 42     90%     30.04 30.05      
Jan 22 03:56 ESE 6 10 Clear CLR 51 44     77%     30.06 30.07      
Jan 22 02:56 Calm 10 Clear CLR 42 41     96%     30.07 30.08      
Jan 22 01:56 Calm 10 Clear CLR 42 41     96%     30.08 30.09      
Jan 22 00:56 Calm 10 Clear CLR 43 41     93%     30.09 30.1      
Notice The following observation data may not be complete
Jan 21 23:56 NE 3 10 Clear CLR   42      %     30.1 30.11      
Notice The following observation data may not be complete
Jan 21 22:56 Calm 10 Clear CLR   42      %     30.11 30.13      
Notice The following observation data may not be complete
Jan 21 21:56 Calm 10 Clear CLR   41      %     30.14 30.16      
Jan 21 20:56 Calm 10 Clear CLR 46 43     89%     30.13 30.15      
Jan 21 18:56 SE 6 10 Clear CLR 53 44     71%     30.14 30.16      
Jan 21 17:56 S 6 10 Clear CLR 61 45     56%     30.13 30.15      
Jan 21 16:56 S 5 10 Clear CLR 65 45     48%     30.14 30.15      
Jan 21 15:56 S 7 10 Clear CLR 69 46     44%     30.14 30.15      
Jan 21 14:56 WSW 5 10 Clear CLR 69 45     42%     30.15 30.16      
Jan 21 13:56 3 10 Clear CLR 68 45     43%     30.15 30.17      
Jan 21 12:56 S 7 10 Clear CLR 66 44     45%     30.18 30.2      
Jan 21 11:56 6 10 Clear CLR 64 43     46%     30.22 30.23      
Jan 21 10:56 3 10 Clear CLR 58 41     53%     30.27 30.29      
Jan 21 09:56 N 3 10 Clear CLR 52 40     63%     30.3 30.31      
Jan 21 08:56 ENE 3 10 Clear CLR 44 38     79% 43   30.3 30.32      
Jan 21 07:56 Calm 10 Clear CLR 35 34     96%     30.28 30.3      
Jan 21 06:56 Calm 10 Clear CLR 29 29     100%     30.26 30.29      
Jan 21 05:56 Calm 10 Clear CLR 30 30     100%     30.26 30.28      
Jan 21 04:56 Calm 10 Clear CLR 30 30     100%     30.25 30.27      
Jan 21 03:56 Calm 10 Clear CLR 30 30     100%     30.24 30.25      
Jan 21 02:56 Calm 10 Clear CLR 31 31     100%     30.24 30.25      
Jan 21 01:56 Calm 10 Clear CLR 32 32     100%     30.24 30.25      
Jan 21 00:56 Calm 10 Clear CLR 33 32     96%     30.24 30.25      
Jan 20 22:56 Calm 10 Clear CLR 35 33     92%     30.25 30.27      
Jan 20 21:56 Calm 10 Clear CLR 36 33     89%     30.26 30.28      
Jan 20 20:56 Calm 10 Clear CLR 38 35     89%     30.25 30.27      
Jan 20 19:56 Calm 10 Clear CLR 40 35     83%     30.25 30.27      
Jan 20 18:56 Calm 10 Clear CLR 45 36     71%     30.25 30.27      
Jan 20 17:56 Calm 10 Clear CLR 53 36     52%     30.24 30.25      
Jan 20 16:56 S 5 10 Clear CLR 58 36     44%     30.22 30.23      
Jan 20 15:56 SW 7 10 Clear CLR 63 38     40%     30.22 30.23      
Jan 20 14:56 SE 7 10 Clear CLR 63 35     35%     30.21 30.22      
Jan 20 13:56 6 10 Clear CLR 62 35     36%     30.22 30.23      
Jan 20 12:56 Calm 10 Clear CLR 61 34     36%     30.24 30.26      
Jan 20 11:56 Calm 10 Clear CLR 57 31     37%     30.27 30.29      
Jan 20 10:56 3 10 Clear CLR 53 27     36%     30.31        
Jun 12 04:56 Calm 10 Mostly Cloudy FEW028 BKN034 70 69     97%     30.15 30.18      
Jun 11 10:20 Calm 10 Mostly Cloudy BKN021 81 72     74%   85 30.18        
Jun 10 21:56 Calm 10 Clear   70 64     81%     30.11 30.14      
Jun 10 20:56 Calm 10 Clear CLR 74 64     71%   74 30.08 30.11      
Jun 10 03:56 Calm 10 Mostly Clear FEW070 60 60     100%     30.02 30.05      
Jun 08 22:56 Calm 10 Mostly Clear FEW060 62 60     93%     29.93 29.97      
Jun 07 18:56 N 9 10 Clear CLR 77 55     47%   77 29.85 29.89      
Jun 07 15:56 NNE 14 10 Clear CLR 82 54     38%   81 29.83 29.86      
Jun 07 13:56 N 10 10 Clear CLR 81 60     49%   82 29.83 29.87      
Jun 07 11:56 NE 10 10 Clear CLR 78 62     58%   78 29.85        
Jun 06 04:23 Calm 7 Partly Cloudy SCT003 70 70     100%     29.8        
Jun 05 23:56 Calm 10 Light Rain CLR 71 70     96%   72 29.84 29.86 0